Regional Weather Roundup
Issued by NWS

Home | Current Version | Previous Version | Text Only | Print | Product List | Glossary Off
Versions: 1 2 3 4 5 6 7 8 9 10 11 12 13 14 15 16 17 18 19 20 21 22 23 24 25 26 27 28 29 30 31 32 33 34 35 36 37 38 39 40 41 42 43 44 45 46 47 48 49 50

000
ASUS43 KLOT 271009
RWRIL

ILLINOIS REGIONAL WEATHER ROUNDUP
NATIONAL WEATHER SERVICE CHICAGO/ROMEOVILLE IL
500 AM CDT SUN MAY 27 2018

NOTE: "FAIR" INDICATES FEW OR NO CLOUDS BELOW 12,000 FEET WITH NO
SIGNIFICANT WEATHER AND/OR OBSTRUCTIONS TO VISIBILITY.

* THESE STATIONS ARE NOT UNDER NWS QUALITY CONTROL. THEY ALSO MAY NOT
  REPORT WEATHER SUCH AS PRECIPITATION OR FOG.

ILZ001-002-007-009-015-016-024-271100-
NORTHWEST ILLINOIS

CITY           SKY/WX    TMP DP  RH WIND       PRES   REMARKS
MOLINE         FAIR      67  64  90 CALM      29.82R
STERLING*        N/A    N/A N/A N/A MISG        N/A
SAVANNA*       FAIR      65  65  99 CALM      29.82S FOG
$$

ILZ003-004-008-010-011-017-018-271100-
NORTH CENTRAL ILLINOIS

CITY           SKY/WX    TMP DP  RH WIND       PRES   REMARKS
ROCKFORD       FAIR      64  61  90 CALM      29.84R
FREEPORT*      FAIR      65  65  98 CALM      29.84S
ROCHELLE*      FAIR      63  62  99 CALM      29.84R
DE KALB*       FAIR      66  65  95 CALM      29.85R
PERU*          FAIR      72  69  91 CALM      29.84R
$$

ILZ005-006-012>014-019>023-271100-
NORTHEAST ILLINOIS

CITY           SKY/WX    TMP DP  RH WIND       PRES   REMARKS
CHICAGO-OHARE  FAIR      73  65  75 SW6       29.82R
CHICAGO-MIDWAY FAIR      73  65  75 S3        29.82R
AURORA         FAIR      65  64  97 CALM      29.83S
LANSING*       FAIR      67  65  91 CALM      29.84R
JOLIET*        FAIR      67  67 100 CALM      29.84R
WAUKEGAN       FAIR      64  61  90 CALM      29.82R
DUPAGE AIRPORT FAIR      65  64  97 CALM      29.82S
KANKAKEE*      FAIR      67  62  85 CALM      29.84S
WHEELING       FAIR      66  62  87 CALM      29.84R
MORRIS*        FAIR      69  66  89 CALM      29.82R
ROMEOVILLE*    FAIR      67  64  90 S5        29.84R
$$

LMZ740>746-271100-
SOUTHERN LAKE MICHIGAN

STATION/POSITION SKY/WX   TEMP    WIND        PRES    VSBY  WAVE
                          AIR SEA DIR/SP/G                  HT/PER
                          (F)     (DEG/KT/KT) (MB)    (MI)  (FT/S)
SOUTHERN BUOY              52 40  150/  8/  8 1010.1R         0
WILMETTE HARBOR            61 57     CALM       N/A           0
HARRISON CRIB              77     220/  3/  4   N/A
BURNHAM HARBOR                    230/  3/  6   N/A
CALUMET HARBOR             73     200/  2/  3 1009.7R
BURNS HARBOR               76      CALM  /  5 1010.8R
MICHIGAN CITY              74     160/  8/  9   N/A
MICHIGAN CITY 6N           67 63  180/  2/  2   N/A           0
ST. JOSEPH                 66 64  190/  2/  4 1010.0          0
$$

ILZ025>027-034>036-040-047-049-050-058-095>099-271100-
WEST-CENTRAL ILLINOIS

CITY           SKY/WX    TMP DP  RH WIND       PRES   REMARKS
QUINCY         CLEAR     70  67  90 S7        29.83S
GALESBURG*     FAIR      65  64  96 S3        29.84R
MACOMB*        CLEAR     64  63  96 CALM      29.85S
JACKSONVILLE*  CLEAR     71  68  89 SW6       29.83S
PITTSFIELD*    CLEAR     75  70  85 W3        29.84F
$$

ILZ028>032-037-038-041>044-048-051>054-059>061-271100-
CENTRAL ILLINOIS

CITY           SKY/WX    TMP DP  RH WIND       PRES   REMARKS
PONTIAC        FAIR      73  69  87 SW3       29.85R
BLOOMINGTON    FAIR      69  66  90 SW6       29.86R
DECATUR        FAIR      72  69  90 S5        29.85R
PEORIA         FAIR      69  67  93 CALM      29.84R
LACON*         FAIR      66  65  99 CALM      29.83R
LINCOLN*       FAIR      71  70  96 CALM      29.84R
SPRINGFIELD    FAIR      72  69  90 S5        29.84R
TAYLORVILLE    FAIR      71  70  98 CALM      29.85R
$$

ILZ033-039-045-046-055>057-062-063-271100-
EAST-CENTRAL ILLINOIS

CITY           SKY/WX    TMP DP  RH WIND       PRES   REMARKS
CHAMPAIGN      FAIR      68  67  96 CALM      29.86R
DANVILLE*      FAIR      67  65  93 CALM      29.84R
RANTOUL*       FAIR      73  70  89 S3        29.86R
MATTOON        FAIR      73  69  87 CALM      29.85S
PARIS*         FAIR      69  66  90 CALM      29.87R
$$

ILZ079-100>102-271100-
SOUTHWEST ILLINOIS

CITY           SKY/WX    TMP DP  RH WIND       PRES   REMARKS
ALTON          CLOUDY    67  65  93 CALM      29.86R
BELLEVILLE     CLOUDY    73  69  85 CALM        N/A
CAHOKIA*       PTCLDY    70  66  87 E3        29.85R
SPARTA*        CLEAR     71  71 100 CALM      29.87R
$$

ILZ064>066-069>071-074>076-080>082-084>086-088>090-092>094-271100-
SOUTH-CENTRAL ILLINOIS

CITY           SKY/WX    TMP DP  RH WIND       PRES   REMARKS
CARBONDALE     FAIR      69  67  93 S3        29.85S
CAIRO*         FAIR      72  72  99 S5        29.86F FOG
EFFINGHAM*     FAIR      70  69  97 CALM      29.88R
MARION         FAIR      67  67  98 CALM      29.87S
MT. VERNON     FAIR      67  67 100 CALM      29.87R FOG
CENTRALIA*     CLOUDY    72  71  97 CALM      29.86R
SALEM*         FAIR      73  69  89 CALM      29.86R
METROPOLIS*    FAIR      70  69  98 CALM      29.88S FOG
$$

ILZ067-068-072-073-078-083-087-091-271100-
SOUTHEAST ILLINOIS

CITY           SKY/WX    TMP DP  RH WIND       PRES   REMARKS
LAWRENCEVILLE  FAIR      72  67  84 S5        29.86F
FLORA*         FAIR      72  70  93 S3        29.86S
FAIRFIELD*     FAIR      69  69 100 CALM      29.85S
HARRISBURG*    FAIR      68  68 100 CALM      29.87S FOG
ROBINSON*      FAIR      68  68 100 S3        29.86F
CARMI*         FAIR      69  68  99 CALM      29.87R FOG
$$

ABBREVIATIONS USED IN REMARKS
   TC - TEMPERATURE IN CELSIUS
  WCI - WIND CHILL INDEX
   HX - HEAT INDEX
  VSB - VISIBILITY
$$





USA.gov is the U.S. government's official web portal to all federal, state and local government web resources and services.